QPF
0.01 0.01 0.03 0.05 0.07 0.07 0.07 0.07 0.05 0.05 0.05 0.05 0.06 0.06 0.05 0.05 0.05 0.04 0.03 0.03 0.04 0.03 0.04 0.03 0.03 0.04 0.03 0.02 0.01 0.01 0.01 0.01 0.02 0.03 0.03 0.02 0.02 0.02 0.02 0.02 0.03 0.02 0.03
0.01 0.01 0.03 0.05 0.05 0.06 0.06 0.06 0.04 0.03 0.04 0.06 0.06 0.05 0.05 0.05 0.05 0.05 0.04 0.04 0.05 0.04 0.05 0.03 0.02 0.03 0.03 0.03 0.02 0.01 0.01 0.01 0.02 0.02 0.01 0.01 0.01 0.01 0.01 0.02 0.03 0.02 0.02
0.00 0.00 0.02 0.05 0.05 0.05 0.05 0.05 0.04 0.03 0.05 0.05 0.06 0.05 0.04 0.04 0.06 0.06 0.05 0.06 0.05 0.05 0.05 0.04 0.03 0.03 0.02 0.02 0.01 0.01 0.01 0.01 0.01 0.01 0.01 0.02 0.02 0.02 0.02 0.02 0.02 0.02 0.03
0.01 0.00 0.02 0.04 0.05 0.05 0.04 0.03 0.03 0.03 0.04 0.03 0.06 0.05 0.04 0.05 0.06 0.06 0.05 0.05 0.04 0.05 0.04 0.03 0.03 0.02 0.02 0.02 0.01 0.02 0.01 0.01 0.00 0.00 0.01 0.02 0.02 0.03 0.03 0.03 0.02 0.03 0.03
0.01 0.01 0.02 0.05 0.05 0.04 0.04 0.04 0.05 0.04 0.02 0.02 0.04 0.03 0.03 0.03 0.04 0.04 0.05 0.05 0.04 0.04 0.04 0.03 0.03 0.02 0.02 0.02 0.01 0.02 0.01 0.01 0.00 0.00 0.01 0.03 0.04 0.04 0.03 0.02 0.03 0.03 0.03
0.01 0.01 0.02 0.05 0.04 0.04 0.04 0.04 0.04 0.03 0.02 0.02 0.03 0.03 0.02 0.02 0.03 0.05 0.04 0.05 0.04 0.04 0.03 0.03 0.02 0.02 0.02 0.02 0.02 0.01 0.01 0.00 0.00 0.01 0.01 0.02 0.03 0.03 0.03 0.02 0.02 0.02 0.02
0.01 0.01 0.02 0.04 0.04 0.04 0.05 0.03 0.02 0.02 0.02 0.02 0.03 0.03 0.02 0.02 0.02 0.03 0.03 0.04 0.04 0.03 0.03 0.03 0.02 0.02 0.02 0.01 0.01 0.01 0.01 0.00 0.01 0.01 0.01 0.01 0.02 0.03 0.03 0.02 0.02 0.02 0.02
0.00 0.01 0.01 0.02 0.03 0.03 0.04 0.03 0.02 0.02 0.02 0.02 0.03 0.04 0.03 0.02 0.02 0.02 0.02 0.03 0.03 0.02 0.02 0.02 0.02 0.02 0.02 0.01 0.01 0.01 0.01 0.00 0.00 0.01 0.01 0.01 0.01 0.03 0.04 0.03 0.03 0.03 0.02
0.00 0.00 0.01 0.01 0.02 0.02 0.02 0.03 0.03 0.03 0.03 0.02 0.03 0.03 0.03 0.02 0.01 0.01 0.02 0.02 0.03 0.02 0.02 0.02 0.02 0.02 0.02 0.02 0.01 0.01 0.01 0.01 0.01 0.01 0.01 0.01 0.02 0.03 0.04 0.03 0.03 0.03 0.03
0.00 0.00 0.01 0.01 0.01 0.01 0.01 0.02 0.03 0.03 0.03 0.03 0.03 0.03 0.03 0.02 0.02 0.01 0.02 0.02 0.02 0.02 0.02 0.02 0.03 0.02 0.02 0.01 0.01 0.00 0.00 0.01 0.01 0.01 0.01 0.02 0.02 0.02 0.03 0.02 0.03 0.03 0.04
0.00 0.00 0.00 0.01 0.01 0.01 0.01 0.01 0.02 0.02 0.02 0.03 0.03 0.04 0.04 0.03 0.03 0.02 0.01 0.01 0.02 0.02 0.02 0.03 0.03 0.02 0.02 0.01 0.01 0.01 0.01 0.01 0.01 0.01 0.02 0.03 0.04 0.03 0.03 0.03 0.03 0.03 0.04
0.01 0.00 0.00 0.01 0.01 0.01 0.01 0.01 0.01 0.02 0.03 0.03 0.03 0.04 0.05 0.04 0.03 0.02 0.02 0.02 0.01 0.02 0.02 0.03 0.03 0.02 0.02 0.03 0.02 0.03 0.03 0.03 0.02 0.02 0.03 0.04 0.06 0.04 0.03 0.03 0.03 0.03 0.04
0.00 0.00 0.01 0.01 0.01 0.01 0.01 0.01 0.02 0.02 0.03 0.03 0.03 0.03 0.04 0.05 0.04 0.03 0.03 0.04 0.02 0.02 0.02 0.03 0.03 0.02 0.01 0.02 0.02 0.01 0.02 0.03 0.02 0.02 0.04 0.04 0.05 0.05 0.04 0.05 0.04 0.04 0.05
0.00 0.01 0.01 0.01 0.01 0.01 0.01 0.01 0.02 0.02 0.03 0.03 0.03 0.03 0.03 0.05 0.06 0.04 0.02 0.03 0.04 0.03 0.02 0.03 0.04 0.03 0.02 0.02 0.02 0.01 0.01 0.01 0.01 0.01 0.03 0.03 0.03 0.04 0.05 0.09 0.08 0.06 0.05
0.00 0.01 0.01 0.01 0.01 0.01 0.01 0.01 0.01 0.02 0.02 0.03 0.04 0.04 0.03 0.04 0.06 0.06 0.04 0.03 0.03 0.04 0.03 0.03 0.03 0.04 0.03 0.02 0.02 0.01 0.01 0.00 0.01 0.01 0.01 0.01 0.01 0.02 0.03 0.05 0.09 0.13 0.09
0.00 0.01 0.01 0.01 0.01 0.01 0.01 0.01 0.02 0.02 0.02 0.02 0.03 0.03 0.04 0.04 0.05 0.05 0.05 0.04 0.04 0.04 0.04 0.04 0.04 0.04 0.03 0.02 0.02 0.02 0.01 0.01 0.01 0.00 0.00 0.01 0.01 0.01 0.02 0.03 0.04 0.07 0.10
0.01 0.01 0.01 0.01 0.01 0.01 0.01 0.01 0.01 0.02 0.02 0.02 0.02 0.02 0.03 0.03 0.03 0.04 0.05 0.03 0.03 0.04 0.04 0.04 0.06 0.05 0.04 0.02 0.01 0.01 0.01 0.01 0.01 0.01 0.00 0.00 0.01 0.01 0.01 0.03 0.04 0.06 0.05
0.01 0.01 0.01 0.01 0.01 0.01 0.01 0.01 0.02 0.02 0.02 0.02 0.02 0.03 0.03 0.02 0.02 0.03 0.04 0.04 0.02 0.03 0.04 0.06 0.07 0.08 0.05 0.03 0.02 0.01 0.01 0.00 0.01 0.01 0.00 0.00 0.00 0.00 0.01 0.03 0.07 0.06 0.05
0.01 0.01 0.01 0.01 0.01 0.01 0.01 0.01 0.01 0.02 0.02 0.02 0.02 0.03 0.02 0.02 0.02 0.02 0.03 0.04 0.03 0.03 0.04 0.06 0.08 0.09 0.07 0.04 0.02 0.01 0.01 0.01 0.01 0.01 0.01 0.01 0.00 0.00 0.01 0.04 0.06 0.05 0.06
0.01 0.00 0.00 0.01 0.01 0.01 0.01 0.01 0.01 0.01 0.02 0.02 0.03 0.03 0.03 0.02 0.02 0.02 0.02 0.04 0.05 0.04 0.04 0.05 0.07 0.10 0.09 0.07 0.04 0.02 0.01 0.01 0.01 0.01 0.01 0.01 0.01 0.01 0.02 0.03 0.03 0.05 0.08
0.01 0.00 0.00 0.00 0.01 0.01 0.01 0.01 0.01 0.01 0.01 0.03 0.03 0.04 0.04 0.03 0.02 0.02 0.01 0.02 0.04 0.05 0.04 0.05 0.07 0.09 0.09 0.08 0.07 0.04 0.02 0.01 0.01 0.01 0.01 0.01 0.02 0.02 0.02 0.02 0.02 0.02 0.02
0.01 0.01 0.00 0.00 0.00 0.01 0.01 0.01 0.01 0.01 0.01 0.02 0.05 0.04 0.05 0.05 0.03 0.02 0.01 0.01 0.03 0.05 0.05 0.06 0.08 0.09 0.09 0.08 0.07 0.05 0.04 0.03 0.02 0.01 0.01 0.01 0.01 0.01 0.01 0.01 0.01 0.01 0.01
0.00 0.00 0.00 0.00 0.00 0.01 0.01 0.00 0.00 0.01 0.02 0.01 0.04 0.06 0.05 0.06 0.06 0.04 0.02 0.02 0.02 0.03 0.05 0.06 0.09 0.09 0.09 0.09 0.07 0.05 0.04 0.03 0.02 0.01 0.01 0.01 0.01 0.01 0.01 0.01 0.01 0.00 0.00
0.00 0.00 0.00 0.00 0.00 0.00 0.00 0.00 0.00 0.00 0.01 0.02 0.02 0.06 0.07 0.05 0.06 0.06 0.04 0.03 0.03 0.03 0.03 0.05 0.09 0.09 0.08 0.08 0.07 0.05 0.04 0.03 0.03 0.02 0.01 0.01 0.01 0.01 0.01 0.01 0.01 0.01 0.01
0.00 0.00 0.00 0.00 0.00 0.00 0.00 0.00 0.00 0.00 0.01 0.01 0.02 0.02 0.06 0.07 0.06 0.06 0.06 0.04 0.03 0.04 0.03 0.04 0.07 0.09 0.08 0.07 0.06 0.04 0.03 0.03 0.03 0.03 0.02 0.02 0.01 0.01 0.01 0.01 0.01 0.01 0.01
0.00 0.00 0.00 0.00 0.00 0.00 0.00 0.00 0.00 0.00 0.00 0.01 0.02 0.02 0.03 0.06 0.07 0.08 0.08 0.06 0.04 0.04 0.04 0.04 0.06 0.08 0.09 0.06 0.05 0.03 0.02 0.02 0.03 0.04 0.03 0.02 0.02 0.01 0.01 0.01 0.01 0.01 0.01
MSLP
1022.93 1022.96 1022.92 1022.84 1022.75 1022.69 1022.63 1022.58 1022.48 1022.31 1022.07 1021.74 1021.38 1021.01 1020.66 1020.39 1020.17 1020.01 1019.88 1019.74 1019.55 1019.30 1019.00 1018.66 1018.31 1017.98 1017.69 1017.45 1017.24 1017.05 1016.86 1016.66 1016.45 1016.24 1016.05 1015.88 1015.76 1015.68 1015.63 1015.60 1015.57 1015.53 1015.49
1022.82 1022.87 1022.86 1022.82 1022.78 1022.77 1022.77 1022.76 1022.70 1022.57 1022.35 1022.06 1021.72 1021.38 1021.07 1020.83 1020.65 1020.52 1020.41 1020.29 1020.12 1019.89 1019.60 1019.27 1018.94 1018.62 1018.33 1018.07 1017.83 1017.60 1017.36 1017.11 1016.85 1016.60 1016.38 1016.21 1016.08 1016.01 1015.97 1015.95 1015.92 1015.88 1015.83
1022.89 1022.94 1022.93 1022.90 1022.88 1022.89 1022.92 1022.94 1022.92 1022.83 1022.66 1022.42 1022.13 1021.83 1021.57 1021.35 1021.20 1021.08 1020.97 1020.84 1020.66 1020.42 1020.14 1019.82 1019.50 1019.19 1018.91 1018.64 1018.38 1018.11 1017.83 1017.54 1017.23 1016.95 1016.71 1016.52 1016.39 1016.32 1016.28 1016.26 1016.22 1016.18 1016.11
1023.15 1023.18 1023.16 1023.11 1023.08 1023.09 1023.13 1023.17 1023.18 1023.13 1023.01 1022.83 1022.59 1022.35 1022.12 1021.93 1021.78 1021.64 1021.51 1021.35 1021.15 1020.90 1020.60 1020.29 1019.98 1019.69 1019.42 1019.15 1018.88 1018.60 1018.29 1017.96 1017.62 1017.31 1017.04 1016.84 1016.70 1016.62 1016.57 1016.53 1016.48 1016.42 1016.34
1023.53 1023.55 1023.50 1023.44 1023.39 1023.39 1023.42 1023.47 1023.50 1023.49 1023.41 1023.27 1023.09 1022.89 1022.69 1022.51 1022.34 1022.18 1022.02 1021.82 1021.58 1021.31 1021.01 1020.71 1020.41 1020.14 1019.89 1019.63 1019.37 1019.08 1018.75 1018.40 1018.05 1017.71 1017.43 1017.20 1017.04 1016.93 1016.85 1016.78 1016.71 1016.62 1016.53
1023.94 1023.96 1023.90 1023.83 1023.77 1023.75 1023.78 1023.83 1023.88 1023.89 1023.84 1023.74 1023.59 1023.42 1023.23 1023.05 1022.87 1022.68 1022.48 1022.25 1021.98 1021.69 1021.39 1021.10 1020.83 1020.58 1020.35 1020.12 1019.87 1019.58 1019.25 1018.90 1018.53 1018.18 1017.87 1017.62 1017.42 1017.28 1017.16 1017.05 1016.94 1016.82 1016.70
1024.28 1024.31 1024.27 1024.20 1024.15 1024.15 1024.18 1024.24 1024.29 1024.31 1024.28 1024.20 1024.07 1023.92 1023.74 1023.55 1023.36 1023.15 1022.92 1022.67 1022.39 1022.10 1021.80 1021.53 1021.28 1021.06 1020.85 1020.63 1020.40 1020.12 1019.80 1019.44 1019.07 1018.72 1018.39 1018.11 1017.88 1017.68 1017.51 1017.35 1017.19 1017.04 1016.89
1024.46 1024.53 1024.52 1024.50 1024.49 1024.51 1024.57 1024.64 1024.70 1024.73 1024.72 1024.65 1024.53 1024.38 1024.21 1024.02 1023.82 1023.61 1023.37 1023.11 1022.83 1022.55 1022.27 1022.02 1021.79 1021.58 1021.39 1021.19 1020.96 1020.69 1020.38 1020.03 1019.66 1019.30 1018.97 1018.66 1018.40 1018.16 1017.93 1017.72 1017.51 1017.31 1017.13
1024.44 1024.56 1024.63 1024.67 1024.73 1024.81 1024.91 1025.01 1025.10 1025.14 1025.13 1025.06 1024.95 1024.81 1024.65 1024.47 1024.28 1024.08 1023.85 1023.60 1023.34 1023.07 1022.81 1022.56 1022.34 1022.14 1021.95 1021.75 1021.53 1021.27 1020.96 1020.63 1020.27 1019.92 1019.59 1019.27 1018.98 1018.70 1018.43 1018.16 1017.90 1017.65 1017.44
1024.25 1024.44 1024.58 1024.72 1024.86 1025.02 1025.19 1025.34 1025.45 1025.51 1025.51 1025.46 1025.35 1025.22 1025.07 1024.91 1024.75 1024.56 1024.36 1024.13 1023.89 1023.63 1023.38 1023.14 1022.92 1022.71 1022.51 1022.30 1022.07 1021.81 1021.52 1021.21 1020.88 1020.54 1020.22 1019.91 1019.60 1019.30 1018.99 1018.68 1018.38 1018.09 1017.84
1023.92 1024.19 1024.42 1024.66 1024.90 1025.15 1025.39 1025.60 1025.75 1025.84 1025.86 1025.81 1025.73 1025.61 1025.49 1025.35 1025.21 1025.06 1024.88 1024.67 1024.45 1024.20 1023.95 1023.70 1023.46 1023.23 1023.01 1022.79 1022.56 1022.30 1022.03 1021.75 1021.45 1021.15 1020.86 1020.56 1020.26 1019.95 1019.62 1019.28 1018.94 1018.62 1018.33
1023.54 1023.87 1024.20 1024.53 1024.87 1025.21 1025.52 1025.79 1025.98 1026.10 1026.14 1026.12 1026.06 1025.97 1025.87 1025.77 1025.65 1025.53 1025.37 1025.19 1024.96 1024.72 1024.45 1024.19 1023.93 1023.68 1023.44 1023.20 1022.97 1022.73 1022.49 1022.24 1021.99 1021.75 1021.49 1021.23 1020.95 1020.65 1020.31 1019.95 1019.58 1019.23 1018.91
1023.14 1023.54 1023.94 1024.36 1024.79 1025.20 1025.58 1025.90 1026.13 1026.28 1026.35 1026.36 1026.32 1026.27 1026.20 1026.13 1026.04 1025.94 1025.80 1025.62 1025.41 1025.15 1024.87 1024.58 1024.30 1024.03 1023.78 1023.54 1023.32 1023.10 1022.90 1022.71 1022.52 1022.33 1022.13 1021.92 1021.67 1021.38 1021.05 1020.68 1020.29 1019.91 1019.56
1022.75 1023.21 1023.69 1024.18 1024.67 1025.14 1025.56 1025.92 1026.19 1026.37 1026.47 1026.51 1026.50 1026.48 1026.45 1026.41 1026.36 1026.27 1026.15 1025.97 1025.75 1025.48 1025.19 1024.88 1024.58 1024.30 1024.05 1023.82 1023.62 1023.45 1023.29 1023.16 1023.03 1022.91 1022.77 1022.60 1022.40 1022.14 1021.82 1021.45 1021.05 1020.64 1020.25
1022.37 1022.89 1023.43 1023.97 1024.51 1025.01 1025.47 1025.85 1026.14 1026.35 1026.48 1026.55 1026.58 1026.60 1026.61 1026.61 1026.58 1026.52 1026.40 1026.23 1026.01 1025.73 1025.43 1025.11 1024.81 1024.53 1024.29 1024.08 1023.91 1023.78 1023.68 1023.60 1023.53 1023.47 1023.39 1023.28 1023.11 1022.88 1022.58 1022.22 1021.81 1021.39 1020.97
1021.97 1022.55 1023.14 1023.72 1024.29 1024.82 1025.29 1025.69 1026.00 1026.23 1026.39 1026.50 1026.57 1026.63 1026.68 1026.72 1026.72 1026.69 1026.59 1026.43 1026.21 1025.93 1025.63 1025.32 1025.02 1024.75 1024.53 1024.35 1024.21 1024.12 1024.06 1024.03 1024.01 1023.99 1023.96 1023.89 1023.77 1023.57 1023.30 1022.96 1022.55 1022.12 1021.68
1021.52 1022.16 1022.79 1023.41 1024.00 1024.55 1025.04 1025.45 1025.78 1026.03 1026.22 1026.37 1026.49 1026.59 1026.69 1026.77 1026.81 1026.81 1026.74 1026.59 1026.39 1026.13 1025.84 1025.54 1025.25 1025.00 1024.79 1024.63 1024.52 1024.45 1024.41 1024.41 1024.42 1024.43 1024.43 1024.40 1024.32 1024.16 1023.92 1023.61 1023.22 1022.79 1022.35
1020.99 1021.69 1022.38 1023.03 1023.65 1024.22 1024.73 1025.16 1025.51 1025.79 1026.01 1026.19 1026.36 1026.51 1026.66 1026.78 1026.87 1026.91 1026.87 1026.76 1026.58 1026.35 1026.08 1025.79 1025.53 1025.29 1025.09 1024.93 1024.82 1024.75 1024.72 1024.71 1024.72 1024.75 1024.77 1024.76 1024.71 1024.59 1024.41 1024.14 1023.79 1023.39 1022.95
1020.37 1021.15 1021.88 1022.59 1023.24 1023.85 1024.38 1024.83 1025.21 1025.52 1025.78 1026.00 1026.21 1026.41 1026.60 1026.77 1026.91 1027.00 1027.01 1026.94 1026.80 1026.60 1026.35 1026.09 1025.83 1025.60 1025.40 1025.23 1025.10 1025.01 1024.94 1024.91 1024.90 1024.91 1024.93 1024.94 1024.92 1024.85 1024.72 1024.51 1024.22 1023.87 1023.47
1019.69 1020.52 1021.32 1022.08 1022.78 1023.43 1024.00 1024.49 1024.90 1025.24 1025.53 1025.79 1026.04 1026.28 1026.51 1026.74 1026.93 1027.06 1027.13 1027.11 1027.02 1026.85 1026.64 1026.40 1026.15 1025.91 1025.70 1025.50 1025.34 1025.20 1025.09 1025.01 1024.96 1024.94 1024.94 1024.95 1024.96 1024.94 1024.87 1024.73 1024.52 1024.23 1023.88
1018.96 1019.85 1020.71 1021.52 1022.27 1022.97 1023.58 1024.12 1024.57 1024.94 1025.26 1025.55 1025.83 1026.10 1026.37 1026.64 1026.87 1027.06 1027.19 1027.23 1027.19 1027.07 1026.90 1026.68 1026.44 1026.20 1025.96 1025.74 1025.53 1025.34 1025.17 1025.04 1024.93 1024.87 1024.84 1024.84 1024.86 1024.88 1024.86 1024.80 1024.67 1024.47 1024.19
1018.22 1019.15 1020.05 1020.91 1021.72 1022.46 1023.12 1023.70 1024.19 1024.59 1024.94 1025.25 1025.54 1025.83 1026.14 1026.44 1026.72 1026.96 1027.14 1027.25 1027.27 1027.21 1027.08 1026.90 1026.68 1026.44 1026.19 1025.94 1025.70 1025.46 1025.24 1025.05 1024.89 1024.78 1024.71 1024.69 1024.70 1024.74 1024.77 1024.77 1024.71 1024.59 1024.39
1017.48 1018.42 1019.35 1020.24 1021.10 1021.88 1022.59 1023.20 1023.72 1024.15 1024.51 1024.83 1025.13 1025.44 1025.76 1026.09 1026.42 1026.71 1026.95 1027.13 1027.21 1027.22 1027.15 1027.01 1026.83 1026.61 1026.37 1026.12 1025.86 1025.61 1025.36 1025.12 1024.91 1024.74 1024.63 1024.56 1024.55 1024.58 1024.62 1024.65 1024.65 1024.59 1024.47
1016.75 1017.69 1018.62 1019.52 1020.40 1021.21 1021.95 1022.59 1023.13 1023.58 1023.95 1024.27 1024.58 1024.90 1025.23 1025.59 1025.95 1026.30 1026.60 1026.84 1027.00 1027.08 1027.07 1027.00 1026.87 1026.70 1026.51 1026.29 1026.05 1025.80 1025.54 1025.29 1025.04 1024.83 1024.66 1024.53 1024.46 1024.45 1024.46 1024.49 1024.51 1024.49 1024.42
1016.03 1016.94 1017.84 1018.74 1019.62 1020.44 1021.20 1021.85 1022.41 1022.87 1023.25 1023.58 1023.89 1024.22 1024.57 1024.95 1025.34 1025.74 1026.10 1026.41 1026.64 1026.79 1026.86 1026.86 1026.81 1026.71 1026.58 1026.42 1026.24 1026.03 1025.80 1025.55 1025.29 1025.04 1024.80 1024.61 1024.46 1024.37 1024.32 1024.30 1024.30 1024.28 1024.23
1015.32 1016.17 1017.03 1017.90 1018.76 1019.59 1020.34 1021.01 1021.58 1022.05 1022.43 1022.77 1023.10 1023.43 1023.80 1024.21 1024.64 1025.07 1025.49 1025.85 1026.15 1026.37 1026.51 1026.59 1026.62 1026.61 1026.56 1026.49 1026.39 1026.26 1026.08 1025.86 1025.60 1025.32 1025.03 1024.76 1024.51 1024.32 1024.17 1024.07 1024.01 1023.97 1023.92
Thickness
5653 5653 5655 5660 5663 5666 5668 5670 5672 5674 5676 5677 5679 5681 5683 5685 5686 5688 5689 5690 5691 5693 5694 5695 5696 5697 5698 5699 5699 5700 5701 5701 5702 5703 5704 5704 5705 5706 5707 5708 5710 5710 5709
5645 5648 5651 5655 5659 5661 5663 5665 5667 5669 5671 5673 5674 5676 5678 5680 5681 5683 5684 5685 5687 5688 5690 5691 5692 5693 5693 5694 5695 5695 5696 5697 5698 5699 5700 5701 5701 5702 5703 5704 5705 5706 5705
5641 5644 5647 5650 5654 5656 5659 5660 5662 5664 5666 5668 5669 5671 5673 5675 5676 5678 5679 5681 5682 5683 5685 5686 5687 5688 5689 5689 5690 5691 5692 5692 5693 5695 5697 5699 5699 5698 5699 5700 5701 5701 5702
5636 5639 5642 5645 5648 5651 5653 5654 5656 5658 5660 5662 5664 5666 5667 5669 5671 5672 5674 5675 5676 5678 5679 5680 5681 5682 5683 5684 5685 5686 5687 5688 5689 5691 5695 5695 5695 5694 5695 5696 5697 5697 5697
5631 5633 5636 5638 5642 5644 5647 5648 5650 5652 5654 5656 5658 5660 5662 5664 5665 5667 5668 5669 5671 5672 5673 5675 5676 5677 5678 5679 5680 5681 5682 5683 5685 5688 5690 5690 5690 5689 5690 5691 5692 5692 5693
5625 5627 5629 5631 5634 5637 5640 5642 5644 5646 5648 5650 5652 5654 5656 5658 5659 5661 5662 5664 5665 5666 5668 5669 5670 5671 5673 5674 5675 5676 5677 5679 5681 5684 5684 5685 5686 5685 5686 5686 5687 5688 5689
5618 5619 5622 5624 5627 5630 5632 5635 5637 5639 5641 5643 5646 5648 5649 5651 5652 5654 5656 5657 5659 5660 5662 5663 5664 5666 5667 5668 5669 5670 5672 5674 5677 5678 5679 5680 5680 5680 5681 5681 5682 5683 5684
5610 5612 5614 5616 5619 5622 5624 5627 5629 5632 5634 5636 5638 5640 5642 5644 5645 5647 5649 5651 5652 5654 5655 5657 5658 5660 5661 5662 5664 5665 5666 5669 5672 5673 5674 5675 5674 5675 5676 5676 5677 5678 5679
5603 5605 5606 5608 5611 5613 5616 5619 5621 5624 5626 5628 5630 5632 5634 5636 5638 5639 5641 5643 5645 5647 5649 5650 5652 5653 5655 5656 5657 5659 5660 5663 5667 5668 5669 5669 5669 5670 5671 5671 5672 5673 5674
5596 5597 5599 5600 5603 5605 5608 5610 5613 5615 5617 5620 5622 5624 5626 5629 5631 5632 5634 5635 5638 5640 5642 5644 5646 5647 5648 5649 5651 5652 5655 5657 5661 5662 5663 5663 5663 5664 5666 5667 5667 5668 5669
5589 5589 5591 5592 5594 5597 5600 5602 5604 5606 5609 5612 5614 5616 5619 5621 5623 5624 5625 5628 5630 5633 5635 5637 5639 5641 5642 5643 5645 5646 5649 5652 5654 5656 5656 5655 5657 5659 5660 5661 5662 5663 5663
5581 5581 5582 5584 5586 5589 5591 5594 5596 5598 5600 5603 5605 5607 5610 5612 5614 5616 5617 5620 5622 5625 5628 5630 5633 5634 5636 5638 5639 5640 5643 5645 5647 5648 5648 5648 5650 5652 5654 5655 5656 5657 5658
5573 5573 5573 5575 5577 5579 5582 5585 5586 5588 5591 5593 5596 5598 5600 5603 5605 5607 5609 5612 5614 5617 5620 5623 5626 5627 5629 5630 5632 5634 5636 5638 5639 5640 5641 5641 5643 5645 5647 5648 5650 5651 5652
5565 5564 5565 5566 5568 5570 5572 5575 5577 5579 5581 5583 5586 5588 5591 5593 5595 5597 5600 5602 5605 5608 5611 5614 5617 5619 5621 5623 5624 5627 5628 5630 5631 5633 5633 5634 5635 5637 5639 5641 5643 5644 5645
5557 5556 5556 5557 5559 5560 5563 5565 5567 5568 5571 5572 5575 5577 5579 5582 5585 5587 5590 5592 5595 5598 5601 5604 5608 5610 5613 5615 5616 5618 5620 5622 5624 5625 5626 5626 5627 5629 5631 5633 5635 5637 5638
5549 5548 5548 5548 5549 5551 5553 5555 5556 5558 5559 5562 5564 5566 5568 5571 5573 5576 5579 5582 5584 5587 5590 5594 5597 5600 5604 5606 5608 5609 5611 5613 5615 5617 5618 5619 5620 5621 5622 5624 5627 5629 5630
5540 5539 5539 5539 5540 5541 5543 5544 5545 5547 5549 5551 5553 5554 5556 5559 5562 5565 5568 5571 5573 5576 5579 5583 5587 5591 5594 5596 5599 5600 5602 5604 5605 5607 5609 5610 5611 5612 5614 5615 5617 5619 5622
5530 5530 5529 5530 5530 5531 5532 5533 5534 5535 5537 5539 5540 5542 5544 5547 5550 5553 5556 5558 5561 5564 5568 5572 5576 5580 5583 5586 5589 5591 5593 5594 5596 5598 5599 5600 5601 5603 5604 5606 5608 5610 5612
5520 5520 5520 5519 5520 5520 5521 5522 5523 5524 5525 5526 5528 5530 5531 5535 5537 5540 5543 5546 5549 5552 5556 5560 5563 5567 5571 5575 5578 5580 5583 5585 5586 5587 5589 5590 5591 5592 5594 5596 5597 5599 5602
5510 5509 5509 5509 5509 5510 5510 5511 5512 5512 5513 5513 5515 5516 5518 5521 5524 5527 5530 5533 5536 5539 5543 5547 5550 5554 5557 5561 5565 5569 5571 5573 5575 5577 5578 5579 5579 5581 5582 5585 5587 5589 5591
5499 5499 5499 5499 5498 5499 5500 5500 5501 5500 5500 5501 5501 5503 5504 5507 5510 5513 5516 5519 5521 5525 5528 5532 5536 5541 5544 5547 5553 5558 5560 5562 5563 5564 5565 5566 5567 5568 5570 5572 5574 5577 5579
5490 5489 5488 5488 5487 5487 5486 5486 5486 5486 5486 5487 5488 5489 5491 5493 5495 5499 5502 5504 5507 5510 5514 5518 5521 5525 5528 5530 5536 5542 5548 5552 5552 5551 5551 5552 5553 5555 5556 5558 5560 5563 5565
5481 5479 5477 5476 5475 5474 5474 5473 5473 5474 5475 5475 5476 5477 5477 5479 5481 5483 5486 5489 5492 5495 5499 5502 5505 5508 5512 5514 5517 5522 5528 5535 5534 5537 5537 5537 5538 5540 5541 5543 5545 5548 5550
5472 5468 5466 5464 5463 5462 5461 5462 5463 5463 5463 5461 5461 5462 5464 5465 5467 5468 5471 5474 5477 5479 5483 5486 5489 5491 5494 5498 5501 5504 5506 5510 5513 5520 5523 5523 5523 5523 5525 5527 5530 5533 5535
5462 5458 5455 5453 5452 5450 5449 5449 5449 5449 5447 5447 5447 5449 5450 5451 5452 5454 5456 5459 5461 5463 5466 5469 5472 5475 5477 5480 5483 5487 5490 5492 5496 5499 5506 5508 5507 5508 5509 5510 5513 5516 5520
5452 5449 5446 5444 5441 5439 5437 5436 5436 5435 5435 5435 5435 5436 5437 5438 5439 5440 5442 5444 5446 5448 5451 5454 5456 5459 5461 5463 5466 5469 5471 5474 5478 5481 5486 5489 5491 5493 5493 5495 5497 5500 5503